Regional Weather Roundup
Issued by NWS Portland, ME

Current Version | Previous Version | Graphics & Text | Print | Product List | Glossary On
Versions: 1 2 3 4 5 6 7 8 9 10 11 12 13 14 15 16 17 18 19 20 21 22 23 24 25 26 27 28 29 30 31 32 33 34 35 36 37 38 39 40 41 42 43 44 45 46 47 48 49 50
000
ASUS41 KGYX 030605
RWRGYX
WEATHER ROUNDUP FOR MAINE AND NEW HAMPSHIRE
NATIONAL WEATHER SERVICE GRAY ME
200 AM EDT SUN JUL 03 2022

MEZ002-005-006-010-012-015-018-020-021-024-026-027-029-030700-
MAINE

CITY           SKY/WX    TMP DP  RH WIND       PRES   REMARKS
PORTLAND       CLEAR     62  58  86 W3        29.88S
6HR MIN TEMP:  61; 6HR MAX TEMP:  78;

SANFORD        CLEAR     62  61  96 W5        29.90R FOG
BAR HARBOR     PTCLDY    59  59 100 CALM      29.88R FOG
WISCASSET      CLEAR     59  56  89 CALM      29.89R
6HR MIN TEMP:  59; 6HR MAX TEMP:  74;

ROCKLAND       PTCLDY    58  58 100 W3        29.87S
FRYEBURG       CLEAR     55  52  89 W3        29.91S
6HR MIN TEMP:  53; 6HR MAX TEMP:  73;

LEWISTONAUBURN CLEAR     56  56 100 CALM      29.90R
AUGUSTA        CLEAR     63  53  70 NW5       29.89R
6HR MIN TEMP:  61; 6HR MAX TEMP:  78;

WATERVILLE     CLEAR     58  55  90 SW3       29.86R
BANGOR         CLEAR     56  54  93 CALM      29.86S
6HR MIN TEMP:  56; 6HR MAX TEMP:  73;

GREENVILLE       N/A     62  49  62 CALM      29.87S
6HR MIN TEMP:  60; 6HR MAX TEMP:  69;

MILLINOCKET    MOCLDY    56  54  93 CALM      29.86S
6HR MIN TEMP:  56; 6HR MAX TEMP:  75;

HOULTON        CLEAR     58  50  75 CALM      29.84R
6HR MIN TEMP:  54; 6HR MAX TEMP:  72;

PRESQUE ISLE   PTCLDY    54  51  90 CALM      29.84S
6HR MIN TEMP:  53; 6HR MAX TEMP:  74;

FRENCHVILLE    CLOUDY    58  51  78 W7        29.83R
6HR MIN TEMP:  57; 6HR MAX TEMP:  71; 6HR PCP: TRACE;

CARIBOU        MOCLDY    58  51  78 SW5       29.81F
6HR MIN TEMP:  58; 6HR MAX TEMP:  73;

$$

NHZ002-005-008-009-011-012-014-030700-
NEW HAMPSHIRE

CITY           SKY/WX    TMP DP  RH WIND       PRES   REMARKS
ROCHESTER      CLEAR     69  58  67 VRB5      29.90R
6HR MIN TEMP:  69; 6HR MAX TEMP:  80;

NASHUA         CLEAR     69  61  75 W7        29.93R
MANCHESTER     PTCLDY    73  51  46 CALM      29.91R
6HR MIN TEMP:  69; 6HR MAX TEMP:  80;

CONCORD        CLEAR     62  57  83 S5        29.92S
6HR MIN TEMP:  62; 6HR MAX TEMP:  78;

LACONIA        CLEAR     61  59  93 CALM      29.93R
BERLIN         CLEAR     49  47  93 CALM      29.93S
6HR MIN TEMP:  49; 6HR MAX TEMP:  70;

WHITEFIELD     CLEAR     50  49  96 CALM      29.93S
6HR MIN TEMP:  50; 6HR MAX TEMP:  71;

JAFFREY        CLEAR     62  59  90 CALM      29.97S
6HR MIN TEMP:  62; 6HR MAX TEMP:  75;

KEENE          CLEAR     57  57 100 CALM      29.96S
LEBANON        CLEAR     57  52  83 CALM      29.94S
6HR MIN TEMP:  55; 6HR MAX TEMP:  75;

MT WASHINGTON  PTCLDY    45  41  87 W44         N/A
6HR MIN TEMP:  44; 6HR MAX TEMP:  50;

$$

VTZ005-007-008-030700-
VERMONT

CITY           SKY/WX    TMP DP  RH WIND       PRES   REMARKS
ST JOHNSBURY     N/A     56  53  90 MISG      29.91S
MONTPELIER     CLEAR     56  48  74 CALM      29.97S
BURLINGTON     CLEAR     65  50  58 SW7       29.91R
$$

MAZ007-012-024-CTZ003-RIZ002-NYZ038-NYZ072-030700-
SOUTHERN NEW ENGLAND AND NY

CITY           SKY/WX    TMP DP  RH WIND       PRES   REMARKS
BOSTON         CLOUDY    72  63  73 W8        29.92R
WORCESTER      CLEAR     67  62  84 NW13      29.96S
NANTUCKET      FOG       69  68  96 SW8       29.94F VSB 1
PROVIDENCE     PTCLDY    72  70  93 CALM      29.94R
HARTFORD       CLOUDY    72  58  61 NW6       29.94S
ALBANY         MOCLDY    61  53  75 CALM      29.96R
NEW YORK CITY  MOCLDY    77  66  68 E3        29.93S
$$

ANZ081-ANZ082-ANZ150-NHZ014-MEZ023>029-030700-
COASTAL MARINE OBSERVATIONS

STATION/POSITION TIME  TEMP    WIND        PRES    WAVE
                       AIR SEA DIR/SP/G            HT/PER
                 (UTC) (F)     (DEG/KT/KT) (MB)    (FT/S)
MOUNT DESERT ROC 0500   62     210/  6/  7 1011.3F
MATINICUS ROCK   0500   63     210/  6/  7 1011.6F
ISLE OF SHOALS   0500   71     270/ 14/ 14 1011.3S
JEFFREYS LEDGE   0526      65                N/A     3/ 5
CASHES LEDGE BUO 0550   66 64  260/  8/ 10 1011.3R   3/ 5
GEORGES BANK BUO 0550      60              1015.7F   5/ 7
$$

.............KEY..............
   WCI - WIND CHILL
   TC  - TEMPERATURE IN CELSIUS
   VSB - VISIBILITY IN MILES
   HX  - HEAT INDEX
   FAIR- INDICATES FEW OR NO CLOUDS BELOW 12,000 FT, WITH NO
         SIGNIFICANT WEATHER AND/OR OBSTRUCTIONS TO VISIBILITY.





USA.gov is the U.S. government's official web portal to all federal, state and local government web resources and services.